When you browse on this site, cookies collect data to enhance your experience and personalize the content and advertising you see.
Visit our Privacy Policy to learn more. By continuing to use the site, you agree to this use of cookies and data.
  • In Hungary
  • List of Countries
  • For 7 days
  • Water Temperature
  • Satellite Maps
  • Weather Map
  • News
  • Weather Widgets
  • user-avatar
    Login

    Hourly Weather Kittilä

    Today, 18 February, Monday

    Time Temperature Precipitation Wind Pressure Humidity
    00:00 -13°C° 0 mm 2 mps 743 mmHg 90%
    01:00 -14°C° 0 mm 2 mps 743 mmHg 91%
    02:00 -11°C° 0 mm 1 mps 743 mmHg 91%
    03:00 -11°C° 0 mm 1 mps 743 mmHg 92%
    04:00 -11°C° 0 mm 1 mps 742 mmHg 93%
    05:00 -11°C° 0 mm 1 mps 742 mmHg 93%
    06:00 -12°C° 0 mm 2 mps 741 mmHg 94%
    07:00 -12°C° 0 mm 2 mps 741 mmHg 94%
    08:00 -12°C° 0 mm 2 mps 740 mmHg 93%
    09:00 -12°C° 0.2 mm 3 mps 739 mmHg 93%
    10:00 -9°C° 0.2 mm 3 mps 738 mmHg 92%
    11:00 -9°C° 0.2 mm 4 mps 737 mmHg 92%
    12:00 -8°C° 0.4 mm 4 mps 736 mmHg 92%
    13:00 -8°C° 0.4 mm 4 mps 735 mmHg 92%
    14:00 -8°C° 0.4 mm 4 mps 734 mmHg 92%
    15:00 -7°C° 0.3 mm 4 mps 732 mmHg 93%
    16:00 -6°C° 0.3 mm 3 mps 731 mmHg 94%
    17:00 -6°C° 0.3 mm 3 mps 730 mmHg 94%
    18:00 -6°C° 0.1 mm 3 mps 729 mmHg 94%
    19:00 -5°C° 0.1 mm 3 mps 728 mmHg 95%
    20:00 -5°C° 0.1 mm 3 mps 727 mmHg 95%
    21:00 -5°C° 0 mm 3 mps 727 mmHg 95%
    22:00 -4°C° 0 mm 2 mps 726 mmHg 96%
    23:00 -4°C° 0 mm 2 mps 726 mmHg 96%

    Tomorrow, 19 February, Tuesday

    Time Temperature Precipitation Wind Pressure Humidity
    00:00 -4°C° 0.1 mm 2 mps 726 mmHg 97%
    01:00 -2°C° 0.1 mm 1 mps 725 mmHg 97%
    02:00 -2°C° 0.1 mm 1 mps 725 mmHg 97%
    03:00 -2°C° 0 mm 1 mps 725 mmHg 97%
    04:00 -2°C° 0 mm 1 mps 725 mmHg 97%
    05:00 -3°C° 0 mm 0 mps 725 mmHg 97%
    06:00 -2°C° 0.1 mm 1 mps 725 mmHg 97%
    07:00 -2°C° 0.1 mm 1 mps 725 mmHg 97%
    08:00 -3°C° 0.1 mm 1 mps 725 mmHg 97%
    09:00 -5°C° 0.3 mm 2 mps 725 mmHg 97%
    10:00 -6°C° 0.3 mm 2 mps 725 mmHg 97%
    11:00 -7°C° 0.3 mm 2 mps 725 mmHg 96%
    12:00 -7°C° 0.2 mm 2 mps 724 mmHg 96%
    13:00 -7°C° 0.2 mm 2 mps 724 mmHg 96%
    14:00 -7°C° 0.2 mm 2 mps 724 mmHg 96%
    15:00 -7°C° 0.3 mm 2 mps 724 mmHg 96%
    16:00 -8°C° 0.3 mm 2 mps 723 mmHg 96%
    17:00 -8°C° 0.3 mm 2 mps 723 mmHg 96%
    18:00 -8°C° 0.1 mm 2 mps 723 mmHg 96%
    19:00 -9°C° 0.1 mm 2 mps 723 mmHg 95%
    20:00 -9°C° 0.1 mm 2 mps 723 mmHg 95%
    21:00 -9°C° 0.1 mm 2 mps 723 mmHg 94%
    22:00 -10°C° 0.1 mm 3 mps 723 mmHg 94%
    23:00 -10°C° 0.1 mm 3 mps 723 mmHg 93%

    Day after tomorrow, 20 February, Wednesday

    Time Temperature Precipitation Wind Pressure Humidity
    00:00 -11°C° 0.5 mm 4 mps 724 mmHg 92%
    01:00 -12°C° 0.5 mm 5 mps 724 mmHg 91%
    02:00 -12°C° 0.5 mm 5 mps 725 mmHg 90%
    03:00 -12°C° 0.2 mm 6 mps 726 mmHg 88%
    04:00 -12°C° 0.2 mm 6 mps 726 mmHg 86%
    05:00 -12°C° 0.2 mm 6 mps 727 mmHg 85%
    06:00 -12°C° 0 mm 6 mps 728 mmHg 83%
    07:00 -12°C° 0 mm 6 mps 730 mmHg 81%
    08:00 -12°C° 0 mm 6 mps 731 mmHg 79%
    09:00 -14°C° 0 mm 6 mps 732 mmHg 81%
    10:00 -13°C° 0 mm 5 mps 733 mmHg 82%
    11:00 -12°C° 0 mm 4 mps 735 mmHg 83%
    12:00 -14°C° 0 mm 4 mps 736 mmHg 82%
    13:00 -14°C° 0 mm 4 mps 737 mmHg 81%
    14:00 -14°C° 0 mm 4 mps 738 mmHg 81%
    15:00 -14°C° 0 mm 3 mps 738 mmHg 83%
    16:00 -16°C° 0 mm 3 mps 739 mmHg 86%
    17:00 -16°C° 0 mm 2 mps 740 mmHg 89%
    18:00 -17°C° 0 mm 2 mps 741 mmHg 91%
    19:00 -17°C° 0 mm 2 mps 741 mmHg 92%
    20:00 -16°C° 0 mm 1 mps 742 mmHg 94%
    21:00 -17°C° 0 mm 1 mps 742 mmHg 93%
    22:00 -17°C° 0 mm 1 mps 743 mmHg 91%
    23:00 -18°C° 0 mm 1 mps 743 mmHg 90%

    21 February, Thursday

    Time Temperature Precipitation Wind Pressure Humidity
    00:00 -18°C° 0 mm 1 mps 743 mmHg 89%
    01:00 -18°C° 0 mm 1 mps 744 mmHg 87%
    02:00 -18°C° 0 mm 1 mps 744 mmHg 85%
    03:00 -18°C° 0 mm 1 mps 744 mmHg 84%
    04:00 -20°C° 0 mm 2 mps 744 mmHg 83%
    05:00 -21°C° 0 mm 2 mps 744 mmHg 82%
    06:00 -20°C° 0 mm 2 mps 744 mmHg 80%
    07:00 -20°C° 0 mm 2 mps 744 mmHg 77%
    08:00 -20°C° 0 mm 2 mps 744 mmHg 75%
    09:00 -18°C° 0 mm 2 mps 744 mmHg 75%
    10:00 -17°C° 0 mm 2 mps 745 mmHg 75%
    11:00 -16°C° 0 mm 2 mps 745 mmHg 74%
    12:00 -14°C° 0 mm 2 mps 745 mmHg 74%
    13:00 -13°C° 0 mm 2 mps 746 mmHg 74%
    14:00 -13°C° 0 mm 3 mps 746 mmHg 74%
    15:00 -14°C° 0 mm 2 mps 746 mmHg 78%
    16:00 -15°C° 0 mm 2 mps 746 mmHg 82%
    17:00 -16°C° 0 mm 2 mps 747 mmHg 85%
    18:00 -17°C° 0 mm 2 mps 747 mmHg 86%
    19:00 -18°C° 0 mm 2 mps 748 mmHg 87%
    20:00 -17°C° 0 mm 1 mps 748 mmHg 88%
    21:00 -17°C° 0 mm 1 mps 749 mmHg 85%
    22:00 -17°C° 0 mm 1 mps 749 mmHg 81%
    23:00 -17°C° 0 mm 0 mps 750 mmHg 77%

    22 February, Friday

    Time Temperature Precipitation Wind Pressure Humidity
    00:00 -17°C° 0 mm 0 mps 751 mmHg 74%
    01:00 -17°C° 0 mm 0 mps 751 mmHg 72%
    02:00 -17°C° 0 mm 0 mps 752 mmHg 69%
    03:00 -17°C° 0 mm 0 mps 752 mmHg 71%
    04:00 -17°C° 0 mm 1 mps 753 mmHg 72%
    05:00 -17°C° 0 mm 1 mps 753 mmHg 74%
    06:00 -17°C° 0 mm 1 mps 753 mmHg 76%
    07:00 -17°C° 0 mm 1 mps 753 mmHg 79%
    08:00 -19°C° 0 mm 2 mps 753 mmHg 82%
    09:00 -18°C° 0 mm 2 mps 753 mmHg 81%
    10:00 -18°C° 0 mm 3 mps 753 mmHg 79%
    11:00 -17°C° 0 mm 3 mps 752 mmHg 78%
    12:00 -17°C° 0 mm 4 mps 751 mmHg 82%
    13:00 -15°C° 0 mm 4 mps 750 mmHg 87%
    14:00 -14°C° 0 mm 5 mps 749 mmHg 91%
    15:00 -13°C° 0.6 mm 5 mps 748 mmHg 92%
    16:00 -11°C° 0.6 mm 5 mps 747 mmHg 92%
    17:00 -10°C° 0.6 mm 6 mps 746 mmHg 92%
    18:00 -8°C° 0.6 mm 5 mps 745 mmHg 92%
    19:00 -7°C° 0.6 mm 5 mps 744 mmHg 92%
    20:00 -6°C° 0.6 mm 5 mps 743 mmHg 92%
    21:00 -5°C° 0.4 mm 4 mps 742 mmHg 93%
    22:00 -5°C° 0.4 mm 3 mps 741 mmHg 94%
    23:00 -5°C° 0.4 mm 3 mps 740 mmHg 95%

    23 February, Saturday

    Time Temperature Precipitation Wind Pressure Humidity
    00:00 -4°C° 0.2 mm 2 mps 739 mmHg 96%
    01:00 -4°C° 0.2 mm 2 mps 738 mmHg 97%
    02:00 -2°C° 0.2 mm 1 mps 738 mmHg 97%
    03:00 -2°C° 0.1 mm 1 mps 737 mmHg 98%
    04:00 -1°C° 0.1 mm 1 mps 737 mmHg 98%
    05:00 -1°C° 0.1 mm 1 mps 737 mmHg 98%
    06:00 -1°C° 0.1 mm 1 mps 737 mmHg 98%
    07:00 -2°C° 0.1 mm 0 mps 737 mmHg 98%
    08:00 -1°C° 0.1 mm 0 mps 737 mmHg 97%
    09:00 0°C° 0.6 mm 1 mps 738 mmHg 97%
    10:00 0°C° 0.6 mm 1 mps 739 mmHg 96%
    11:00 -2°C° 0.6 mm 2 mps 739 mmHg 96%
    12:00 0°C° 0 mm 1 mps 740 mmHg 96%
    13:00 +1°C° 0 mm 1 mps 740 mmHg 96%
    14:00 0°C° 0 mm 0 mps 741 mmHg 96%
    15:00 0°C° 0 mm 1 mps 741 mmHg 95%
    16:00 0°C° 0 mm 1 mps 741 mmHg 95%
    17:00 -1°C° 0 mm 1 mps 741 mmHg 94%
    18:00 -2°C° 0 mm 2 mps 740 mmHg 94%
    19:00 -2°C° 0 mm 3 mps 739 mmHg 94%
    20:00 -1°C° 0 mm 3 mps 738 mmHg 94%
    21:00 -2°C° 0.6 mm 4 mps 736 mmHg 95%
    22:00 -1°C° 0.6 mm 5 mps 735 mmHg 95%
    23:00 -1°C° 0.6 mm 6 mps 734 mmHg 96%
    Show more